Wetbulb
48.23 45.15 42.85 45.27 47.15 46.34 44.73 43.68 42.92 44.10 46.52 44.79 45.39 46.23 48.75 50.83 50.67 50.95 50.46 51.88 55.47 56.98 59.50 62.18 63.50 60.64 61.52 70.91 70.82 71.50 71.18 72.46 71.33 69.90 70.11 69.22 68.20 68.03 68.22 69.11 70.15 70.30 70.53 70.97
45.12 43.07 47.06 47.49 46.05 44.84 43.71 41.60 42.06 44.73 44.97 45.67 45.65 45.88 48.71 49.74 48.76 51.15 52.62 53.83 54.76 56.52 58.60 61.34 63.65 65.96 63.17 68.41 70.82 70.62 70.78 71.79 70.88 70.08 70.52 70.33 70.15 69.58 69.00 69.50 69.85 70.18 70.45 71.10
44.19 45.38 47.31 45.55 43.92 42.86 42.95 42.19 42.67 43.05 43.67 45.42 44.38 44.38 46.59 47.96 51.21 52.91 53.54 54.36 55.58 55.34 56.05 58.31 61.59 64.75 67.15 65.47 69.84 70.66 70.28 70.98 70.52 70.12 70.11 71.28 69.49 68.71 67.77 68.22 68.49 69.59 70.34 70.36
45.16 47.37 45.43 44.82 44.16 44.76 41.87 45.47 45.18 43.89 42.72 41.12 44.29 39.83 45.40 47.80 47.65 51.29 52.71 53.69 55.08 56.33 57.62 58.92 60.35 63.15 66.19 67.44 66.50 70.87 71.12 70.42 69.90 71.08 69.99 69.85 67.90 66.72 68.09 68.30 68.81 70.01 70.58 70.05
44.40 44.52 44.04 43.38 44.84 46.03 44.21 46.79 45.39 44.67 43.59 42.18 41.86 41.02 44.38 46.20 45.66 48.99 51.53 53.41 55.26 56.97 57.79 59.24 60.98 64.06 65.97 67.78 67.55 69.39 71.40 70.54 70.71 70.40 70.95 68.74 68.90 68.59 71.39 71.73 71.23 70.97 70.54 70.66
45.52 47.58 45.48 45.39 44.90 46.38 46.33 45.52 44.13 42.78 43.02 37.82 42.54 41.54 41.95 46.28 45.60 49.28 52.61 54.66 55.76 57.26 59.06 61.09 63.27 65.63 64.41 65.54 69.24 70.65 70.93 70.69 70.57 69.78 70.50 70.32 70.00 70.11 69.83 71.13 70.49 70.73 70.31 69.60
43.29 41.89 44.66 44.73 43.33 44.96 46.24 44.31 38.09 36.20 36.11 36.02 41.44 39.81 44.32 46.97 48.41 49.35 50.97 53.41 54.95 56.83 58.01 59.32 60.78 63.32 64.70 63.62 64.42 68.59 71.00 70.74 71.11 70.68 69.81 70.39 70.75 71.45 70.86 71.50 70.62 70.19 70.26 68.61
38.77 35.55 41.03 43.24 41.25 40.45 41.31 43.49 38.85 31.70 33.79 37.48 41.34 38.01 43.41 48.17 50.22 51.34 52.54 53.60 54.84 55.53 57.05 57.99 59.21 60.79 63.18 64.31 63.89 63.97 65.72 66.68 70.24 71.39 71.43 71.73 72.02 71.96 72.11 70.63 70.81 70.50 69.67 69.51
38.01 35.15 42.00 42.86 42.64 42.21 39.63 39.27 40.49 37.74 38.14 37.26 39.94 42.51 47.12 49.12 48.52 48.57 49.09 51.20 52.39 54.00 55.60 56.89 58.31 59.40 60.60 61.86 63.18 63.18 63.28 63.29 64.29 65.55 67.49 67.87 70.10 69.89 69.59 69.34 68.20 66.03 66.21 66.04
38.47 34.69 39.72 41.57 42.26 43.15 40.35 41.55 36.80 38.41 30.57 30.38 35.86 38.54 41.86 44.17 44.92 46.78 47.33 48.49 50.01 52.48 54.55 56.38 56.55 57.64 59.67 60.83 62.01 62.89 64.06 64.02 64.48 65.15 66.10 66.22 65.65 66.57 68.19 68.18 67.33 67.01 63.84 63.51
43.33 39.93 38.34 42.98 38.80 37.65 39.93 39.18 37.76 38.57 37.19 32.44 31.98 36.59 47.34 44.37 45.37 45.71 46.91 48.32 49.51 51.22 52.83 54.53 55.33 56.47 58.24 59.87 60.16 62.13 62.81 63.25 64.03 65.29 66.34 67.48 67.69 67.91 67.45 67.61 68.00 64.36 64.16 63.38
42.13 39.61 33.35 35.71 39.29 41.36 40.05 38.94 39.79 34.47 33.04 36.35 35.42 35.90 43.44 43.03 43.83 45.15 45.59 46.57 47.74 48.64 51.50 53.93 54.68 54.88 55.79 57.15 57.90 58.74 61.69 62.52 63.58 64.49 65.44 66.01 66.53 67.00 66.75 65.81 66.68 67.40 64.53 64.72
40.57 35.94 31.28 32.43 35.76 38.39 36.64 37.83 37.57 36.57 36.49 34.48 31.95 35.70 41.44 43.47 43.83 45.12 45.09 46.31 47.69 48.27 48.86 49.43 50.52 53.56 53.57 54.72 56.53 57.46 60.75 62.17 62.82 63.26 63.87 64.59 65.04 66.06 66.50 66.88 67.04 67.06 66.28 65.97
41.80 36.75 34.45 30.53 33.29 35.85 33.51 35.41 36.51 35.21 32.11 33.06 33.29 34.88 38.90 40.62 41.69 43.43 45.13 46.17 46.93 47.25 47.76 48.22 48.61 48.44 52.28 54.66 54.43 54.36 55.25 59.83 62.32 61.88 62.59 63.00 63.88 64.63 65.20 65.53 64.79 64.82 64.55 64.39
40.43 34.61 34.74 34.23 34.89 35.66 34.91 34.86 35.61 34.24 35.23 31.40 34.25 34.23 38.01 40.86 41.76 42.56 44.09 44.96 45.59 45.95 46.26 46.75 47.39 47.68 47.96 49.54 52.19 53.73 54.35 55.33 58.61 61.51 61.10 61.42 63.12 64.26 64.56 65.28 65.06 64.03 65.61 64.75
39.44 34.99 35.31 32.85 35.19 35.25 33.25 35.71 35.74 35.58 35.60 35.24 35.55 34.97 41.73 42.80 43.50 43.22 43.94 44.22 44.15 44.95 45.11 45.77 46.60 47.50 48.03 48.47 49.28 50.57 52.03 53.26 54.75 59.14 60.50 60.44 61.18 61.45 62.31 63.61 64.00 64.19 63.72 64.16
37.48 36.77 33.62 29.06 32.92 32.86 28.94 33.47 35.11 35.92 37.43 36.80 33.17 38.23 41.76 41.37 41.95 42.86 43.64 44.25 44.16 44.57 44.73 45.20 45.74 46.46 47.49 48.51 49.28 49.59 50.86 52.22 54.10 58.76 60.52 59.97 59.36 58.92 59.67 60.90 61.43 62.67 62.90 61.54
36.32 35.86 35.17 30.31 31.51 21.78 33.23 39.39 38.69 37.32 38.17 40.50 40.16 40.76 41.37 41.57 43.15 44.33 45.33 44.33 44.34 44.41 44.78 45.38 45.99 46.60 47.51 48.65 49.34 50.23 50.92 51.51 52.37 57.36 59.62 59.32 58.14 57.75 58.30 58.49 59.23 60.25 61.58 62.22
39.26 36.85 31.75 28.27 27.85 31.49 33.86 36.62 37.08 36.07 36.05 41.19 40.34 40.56 41.40 42.48 42.41 43.52 44.70 44.52 44.28 44.39 45.41 45.85 46.76 47.03 47.47 47.96 48.92 49.20 49.69 50.84 51.55 52.13 57.47 58.99 58.67 57.27 57.43 56.72 57.65 58.42 56.98 57.73
36.43 37.99 33.69 29.76 25.15 23.31 34.00 39.07 41.98 40.58 32.55 41.14 41.58 40.98 40.72 40.46 35.72 40.22 43.72 44.42 44.76 45.56 46.15 46.11 46.87 47.12 47.20 47.92 48.49 47.99 48.72 49.78 50.48 52.13 53.32 56.57 58.80 57.19 56.64 56.95 57.47 57.05 57.90 58.79
32.05 32.91 30.35 30.27 28.38 32.26 38.08 41.46 42.55 30.73 34.13 42.51 42.15 41.79 40.27 38.36 40.54 42.99 44.68 44.78 45.88 46.21 46.45 47.14 47.01 46.57 47.12 48.04 47.92 47.21 48.06 48.78 51.00 52.46 52.77 53.83 58.61 57.58 57.33 56.63 56.99 56.46 57.00 57.72
32.79 31.40 30.66 31.03 27.97 25.44 42.16 40.69 35.50 40.07 42.20 42.87 42.09 41.65 41.04 42.12 43.12 43.90 44.62 44.83 44.95 45.37 46.03 46.52 45.55 46.18 47.71 48.56 48.14 47.32 47.23 49.59 51.00 51.81 52.19 53.54 57.97 56.56 55.75 53.05 53.57 53.53 52.60 52.37
32.98 36.30 36.15 35.18 35.00 39.74 43.77 42.20 43.85 42.93 43.05 42.72 41.70 42.82 43.38 42.74 42.87 43.86 43.76 43.17 43.41 45.21 44.82 46.46 45.77 46.14 47.37 48.62 49.02 47.49 48.70 49.98 50.49 51.10 52.00 53.22 56.39 56.49 55.66 54.93 51.66 51.17 50.66 50.32
36.86 38.17 36.70 36.19 38.01 39.29 42.03 44.08 44.43 44.53 43.32 44.02 43.70 43.63 43.84 43.10 43.73 43.08 44.07 43.17 43.44 44.29 45.64 45.76 44.58 44.00 46.41 47.98 49.05 49.20 49.88 50.16 50.14 50.08 51.50 52.94 53.53 55.18 53.82 51.57 50.61 49.55 49.13 48.97
37.31 37.41 35.28 36.13 38.60 40.27 40.93 42.32 43.53 43.63 43.88 43.57 44.69 44.77 44.16 43.90 43.36 43.84 42.83 43.30 44.58 44.81 45.65 45.42 44.54 44.50 44.40 48.26 49.23 50.28 50.17 50.28 49.31 50.19 51.29 53.19 53.98 53.99 53.31 49.18 49.12 48.92 49.17 45.57
37.07 35.99 34.73 34.47 38.67 39.53 41.44 43.52 44.48 43.81 44.23 44.39 42.64 43.04 44.96 44.05 42.91 43.94 42.85 44.01 43.60 45.06 46.59 46.48 46.79 47.41 48.46 47.76 49.47 50.27 50.42 50.49 50.40 50.55 50.21 51.79 53.10 51.93 50.23 50.50 48.66 40.07 40.20 39.29
MSLP
1010.48 1010.25 1009.79 1009.93 1010.32 1010.46 1010.57 1010.60 1010.20 1010.12 1009.86 1009.72 1008.91 1008.45 1007.82 1007.75 1007.83 1007.88 1008.28 1008.49 1008.56 1008.24 1008.34 1008.05 1007.87 1007.41 1007.13 1007.19 1007.49 1007.78 1008.45 1009.29 1010.15 1011.02 1011.30 1011.95 1011.93 1012.55 1012.49 1012.78 1013.09 1013.78 1014.14 1014.44
1010.34 1009.55 1009.42 1009.99 1010.49 1010.62 1010.66 1010.46 1010.06 1009.80 1009.93 1009.68 1008.84 1008.26 1007.89 1007.91 1008.71 1009.34 1009.72 1009.77 1009.87 1009.52 1008.89 1008.40 1008.32 1007.79 1007.50 1007.13 1007.33 1007.80 1008.11 1008.72 1009.12 1009.64 1009.92 1010.31 1010.80 1011.37 1011.96 1012.32 1013.05 1013.10 1013.51 1013.83
1009.06 1008.96 1009.07 1009.69 1010.19 1010.39 1010.29 1010.07 1009.80 1009.71 1009.88 1009.53 1009.17 1008.32 1008.12 1008.62 1009.55 1010.29 1010.83 1011.06 1011.00 1010.94 1010.27 1009.33 1008.63 1008.47 1007.89 1007.42 1007.10 1007.15 1007.56 1008.05 1008.64 1009.30 1009.90 1010.42 1010.89 1011.42 1011.70 1011.80 1012.18 1012.48 1012.74 1013.19
1009.18 1008.96 1009.25 1009.43 1009.44 1009.68 1009.53 1009.48 1009.46 1009.50 1009.58 1008.95 1009.22 1008.32 1008.43 1008.76 1009.96 1011.05 1011.70 1011.86 1011.78 1011.57 1011.13 1010.41 1009.43 1008.69 1008.29 1007.63 1007.13 1006.82 1007.06 1007.58 1008.44 1009.06 1009.53 1009.86 1010.04 1009.96 1009.57 1010.14 1010.97 1011.28 1012.00 1012.34
1008.67 1008.85 1009.11 1009.21 1008.87 1009.19 1008.84 1009.11 1009.25 1009.37 1009.36 1009.45 1009.43 1009.12 1008.74 1009.57 1010.52 1011.84 1012.53 1012.59 1012.43 1011.95 1011.39 1010.56 1009.87 1009.23 1008.64 1008.10 1007.05 1006.61 1006.87 1007.13 1007.56 1008.04 1008.47 1008.97 1009.11 1009.11 1009.74 1010.29 1011.05 1011.26 1011.97 1012.64
1009.09 1009.45 1009.49 1009.46 1009.48 1009.32 1009.31 1009.39 1009.66 1009.89 1009.53 1009.13 1009.07 1009.50 1009.61 1010.99 1012.29 1012.76 1013.12 1013.08 1012.74 1012.21 1011.65 1010.90 1010.39 1009.72 1009.20 1008.76 1007.83 1006.98 1006.97 1007.08 1007.37 1007.78 1008.04 1008.11 1008.44 1008.89 1009.26 1010.04 1010.50 1011.04 1011.73 1012.03
1009.69 1010.23 1010.34 1010.24 1009.81 1009.88 1009.74 1009.51 1009.42 1009.50 1009.43 1008.85 1009.84 1010.34 1011.10 1012.60 1013.24 1013.57 1013.59 1013.32 1013.08 1012.59 1011.95 1011.46 1010.75 1010.19 1009.74 1009.17 1008.77 1008.21 1007.57 1007.35 1007.30 1007.49 1007.80 1008.20 1008.59 1009.07 1009.42 1009.75 1010.43 1011.45 1012.14 1012.38
1010.63 1011.35 1011.36 1011.36 1011.16 1010.72 1010.45 1010.37 1009.73 1009.49 1009.54 1009.70 1010.68 1010.90 1012.08 1013.25 1013.77 1013.96 1014.06 1013.97 1013.59 1013.11 1012.79 1012.27 1011.76 1011.31 1010.67 1010.19 1009.58 1009.27 1009.03 1008.67 1008.17 1007.83 1007.86 1008.07 1008.60 1008.95 1009.33 1010.06 1010.62 1011.45 1012.41 1013.18
1012.04 1012.47 1012.56 1012.39 1012.11 1011.81 1011.49 1011.48 1011.93 1011.46 1012.00 1011.28 1011.34 1012.63 1013.24 1013.60 1013.92 1014.16 1014.17 1013.94 1013.69 1013.50 1013.36 1013.03 1012.57 1012.08 1011.46 1011.04 1010.72 1010.34 1009.75 1009.46 1009.11 1009.00 1008.89 1008.93 1008.97 1009.22 1009.55 1010.07 1010.90 1011.81 1012.64 1013.27
1013.31 1013.34 1013.46 1013.19 1012.85 1012.69 1012.42 1012.99 1012.83 1012.49 1012.39 1011.82 1011.88 1012.34 1012.37 1013.62 1014.05 1014.17 1014.10 1014.20 1014.19 1013.96 1013.58 1013.38 1013.09 1012.83 1012.33 1011.86 1011.40 1011.00 1010.55 1010.12 1009.64 1009.25 1009.18 1009.24 1009.28 1009.49 1009.45 1009.96 1010.12 1010.68 1011.58 1011.49
1013.77 1013.96 1014.13 1013.96 1013.87 1013.73 1013.63 1013.46 1013.69 1013.72 1013.37 1012.64 1012.21 1012.54 1013.73 1014.17 1014.68 1014.87 1014.82 1014.75 1014.67 1014.34 1014.03 1013.81 1013.60 1013.25 1012.81 1012.43 1011.91 1011.43 1011.08 1010.57 1010.09 1009.80 1009.61 1009.30 1009.13 1009.23 1009.47 1009.46 1009.37 1010.02 1010.27 1010.48
1014.66 1014.92 1014.78 1014.86 1014.88 1014.59 1014.53 1014.11 1014.00 1013.88 1013.80 1013.89 1013.72 1013.62 1014.79 1015.20 1015.51 1015.56 1015.28 1015.15 1015.17 1014.94 1014.58 1014.33 1013.90 1013.64 1013.03 1012.49 1012.24 1011.93 1011.54 1010.97 1010.58 1010.29 1009.93 1009.79 1009.44 1009.42 1009.33 1009.72 1009.93 1009.78 1010.55 1011.10
1015.13 1015.33 1015.20 1015.22 1015.42 1015.29 1014.96 1014.93 1014.90 1014.83 1014.64 1013.81 1014.03 1013.93 1015.38 1015.74 1016.11 1016.32 1016.22 1016.17 1015.94 1015.75 1015.54 1015.18 1014.65 1013.93 1013.67 1013.25 1012.89 1012.40 1012.09 1011.68 1011.10 1010.70 1010.50 1010.24 1009.79 1009.43 1009.41 1009.51 1009.95 1009.88 1010.16 1010.71
1015.65 1015.77 1015.62 1015.45 1015.37 1015.65 1015.45 1015.33 1015.28 1015.21 1014.84 1014.28 1014.27 1014.55 1015.25 1015.91 1016.46 1016.81 1016.82 1016.79 1016.61 1016.39 1016.14 1015.84 1015.38 1015.03 1014.51 1013.81 1013.47 1012.85 1012.36 1012.14 1011.64 1011.22 1010.89 1010.39 1010.22 1009.77 1009.58 1009.32 1009.54 1009.74 1010.12 1010.72
1016.21 1016.03 1016.36 1016.41 1016.42 1016.34 1016.07 1015.81 1015.64 1015.49 1015.28 1015.06 1014.76 1015.07 1015.43 1016.21 1016.69 1017.02 1017.25 1017.23 1016.97 1016.80 1016.68 1016.49 1016.20 1015.89 1015.51 1014.88 1014.00 1013.50 1012.55 1012.19 1011.97 1011.48 1011.10 1010.80 1010.61 1010.25 1009.90 1009.54 1009.22 1009.66 1009.77 1010.31
1017.07 1016.77 1016.93 1016.77 1016.85 1016.75 1016.41 1016.08 1015.87 1015.66 1015.51 1015.39 1015.42 1015.28 1015.90 1016.75 1017.01 1017.03 1016.99 1016.93 1016.84 1016.96 1017.12 1017.01 1016.64 1016.23 1015.79 1015.38 1014.80 1014.28 1013.35 1012.81 1012.19 1011.50 1011.13 1011.09 1010.75 1010.38 1010.18 1010.02 1009.72 1009.70 1009.89 1009.90
1017.55 1017.38 1017.41 1017.09 1017.43 1017.18 1016.36 1015.54 1015.50 1015.49 1015.41 1015.31 1015.17 1015.37 1016.43 1016.70 1016.91 1016.96 1016.85 1016.95 1016.86 1016.92 1016.99 1016.85 1016.70 1016.44 1016.06 1015.65 1015.22 1014.59 1013.98 1013.24 1012.44 1011.48 1010.90 1010.85 1010.78 1010.61 1010.35 1010.22 1009.93 1009.60 1009.61 1009.60
1017.98 1017.88 1017.93 1017.57 1017.76 1016.99 1015.89 1015.97 1015.56 1015.51 1015.54 1015.69 1015.91 1016.37 1016.91 1017.22 1017.29 1017.01 1016.99 1016.88 1016.99 1017.03 1016.80 1016.58 1016.42 1016.14 1015.79 1015.47 1015.05 1014.54 1013.91 1013.17 1012.29 1011.41 1010.82 1010.80 1010.77 1010.81 1010.61 1010.55 1010.47 1010.01 1009.62 1009.41
1018.36 1018.32 1018.26 1018.25 1017.61 1016.58 1015.87 1016.09 1016.03 1015.87 1015.54 1015.89 1016.24 1016.94 1017.42 1017.71 1017.58 1016.31 1017.11 1017.41 1017.38 1017.22 1016.80 1016.46 1016.22 1015.86 1015.53 1015.19 1014.72 1014.31 1013.58 1012.76 1012.00 1011.40 1010.73 1010.43 1010.53 1010.61 1010.45 1010.31 1010.30 1010.24 1010.02 1009.40
1018.70 1018.65 1018.55 1018.73 1017.98 1016.57 1015.84 1016.14 1016.35 1016.53 1015.98 1016.49 1016.88 1017.35 1017.72 1017.99 1017.34 1016.25 1017.15 1017.28 1017.04 1016.89 1016.55 1016.10 1015.78 1015.50 1015.04 1014.67 1014.41 1013.89 1013.08 1012.47 1011.78 1011.09 1010.72 1010.42 1010.23 1010.37 1010.25 1010.23 1009.92 1010.07 1009.86 1009.35
1018.50 1018.67 1018.51 1018.50 1018.02 1016.59 1016.08 1016.46 1016.83 1016.79 1016.76 1016.96 1017.39 1017.63 1017.91 1017.87 1017.63 1017.21 1016.89 1016.74 1016.61 1016.06 1015.59 1015.48 1015.29 1014.84 1014.47 1014.20 1013.91 1013.41 1012.88 1012.13 1011.55 1011.06 1010.53 1010.21 1009.92 1009.92 1010.17 1010.43 1010.44 1010.27 1009.85 1009.30
1017.81 1018.04 1018.14 1018.36 1018.02 1016.95 1016.47 1016.95 1016.88 1016.83 1017.12 1017.30 1017.51 1017.70 1017.79 1017.74 1017.43 1017.10 1016.73 1016.20 1015.77 1015.38 1014.90 1014.82 1014.55 1014.17 1013.91 1013.68 1013.35 1012.83 1012.32 1011.97 1011.48 1011.03 1010.44 1010.00 1009.76 1009.80 1009.99 1010.50 1010.64 1010.51 1010.07 1009.73
1018.14 1017.80 1017.61 1017.70 1016.90 1016.72 1016.71 1016.75 1016.94 1017.16 1017.13 1017.13 1017.43 1017.50 1017.66 1017.46 1017.01 1016.65 1016.22 1015.90 1015.62 1014.94 1014.61 1014.31 1013.97 1013.60 1013.23 1012.85 1012.61 1012.13 1011.67 1011.32 1010.94 1010.65 1010.18 1009.81 1009.50 1009.60 1009.82 1010.06 1010.51 1010.56 1010.34 1009.98
1018.12 1018.29 1018.00 1017.63 1017.02 1016.83 1016.80 1016.91 1017.06 1017.17 1017.12 1017.21 1017.44 1017.47 1017.43 1017.11 1016.75 1016.30 1015.87 1015.64 1015.17 1014.62 1013.94 1013.69 1013.49 1013.17 1012.58 1012.10 1011.66 1011.29 1010.99 1010.70 1010.40 1010.07 1009.72 1009.34 1009.07 1009.19 1009.77 1010.21 1010.44 1010.44 1010.27 1010.15
1018.31 1018.43 1017.89 1017.42 1016.98 1016.77 1016.71 1016.90 1016.97 1017.05 1017.15 1017.20 1017.01 1017.02 1016.92 1016.73 1016.25 1015.96 1015.64 1015.19 1014.50 1014.01 1013.49 1013.20 1012.93 1012.55 1012.04 1011.37 1010.72 1010.30 1010.14 1009.93 1009.75 1009.56 1009.29 1008.99 1008.79 1009.04 1009.41 1010.20 1010.52 1010.53 1010.31 1010.62
1018.40 1017.91 1017.93 1017.37 1017.23 1017.18 1016.87 1016.84 1016.97 1016.89 1016.72 1016.77 1016.86 1016.65 1016.46 1016.29 1015.96 1015.63 1015.35 1014.80 1014.24 1013.56 1012.91 1012.46 1012.05 1011.65 1011.06 1010.57 1010.03 1009.53 1009.40 1009.20 1009.03 1008.81 1008.80 1008.53 1008.36 1009.08 1009.52 1009.76 1010.42 1010.75 1010.57 1010.44
Wind_Speed
5 7 11 13 9 5 4 4 8 4 5 4 4 8 9 8 9 6 3 6 8 10 11 11 11 10 10 14 16 18 17 16 13 12 12 11 12 9 9 9 11 13 11 13
5 12 13 7 8 6 5 4 7 7 3 7 3 9 9 7 5 8 8 9 11 13 15 15 14 11 9 11 15 15 17 16 15 12 12 9 10 10 10 7 10 12 14 13
13 3 7 11 8 8 6 8 6 8 1 5 5 4 2 7 10 8 10 10 11 14 16 17 18 15 12 9 13 15 16 16 14 13 9 7 5 7 8 11 10 11 14 13
8 5 7 8 10 11 9 13 10 8 3 3 2 3 4 2 6 11 13 13 14 15 14 14 17 17 15 15 12 13 14 15 14 15 12 14 11 12 14 12 11 11 13 14
6 7 10 8 11 13 8 6 10 7 7 3 6 5 4 4 5 12 13 13 13 14 15 17 16 16 16 15 12 9 12 13 14 15 15 14 15 11 6 7 11 10 10 11
1 2 3 3 2 9 1 5 3 2 5 9 8 7 6 3 6 9 9 11 12 14 14 15 14 14 15 16 15 8 8 10 12 14 16 17 15 12 9 10 8 8 8 8
1 4 4 4 3 3 4 6 5 8 8 9 5 7 5 2 3 5 8 10 13 13 15 17 19 18 16 16 16 13 9 4 9 13 15 15 14 14 13 10 7 7 6 7
3 6 8 9 5 2 3 3 5 6 5 2 2 5 6 4 3 3 6 8 10 13 14 16 17 16 17 17 15 13 13 11 7 4 10 12 11 8 8 7 5 3 2 4
1 4 2 8 11 3 3 2 3 4 1 4 4 3 4 4 3 4 4 5 10 12 12 13 15 15 15 15 15 12 10 7 8 8 5 2 5 8 8 9 10 9 8 8
3 3 4 5 3 8 7 2 3 1 6 10 6 5 4 8 5 5 7 9 11 11 12 10 12 13 11 11 11 13 12 10 8 6 4 2 3 5 9 11 13 14 10 13
3 1 5 4 2 3 4 1 3 1 3 4 5 4 3 3 4 7 6 8 10 10 10 11 13 12 11 10 11 11 11 10 10 9 7 5 3 7 10 11 12 11 12 14
2 4 3 5 4 5 6 7 7 5 6 2 3 2 4 5 6 7 9 13 13 11 11 11 10 13 13 12 13 12 9 9 10 10 10 7 4 4 6 8 8 7 6 9
5 3 2 3 4 3 4 4 4 4 0 14 10 3 4 4 5 7 10 11 12 13 13 12 13 12 10 14 11 10 9 9 8 8 8 9 8 4 7 5 8 9 8 11
2 2 5 5 5 1 3 4 2 2 4 5 6 3 5 2 4 5 7 8 9 11 13 14 14 14 14 13 13 12 10 10 8 7 7 7 8 8 6 3 4 6 9 11
1 4 1 1 1 2 4 6 7 8 7 7 6 9 8 1 2 4 3 6 8 9 11 12 13 13 13 14 15 14 14 11 10 7 7 7 6 5 5 5 2 5 8 11
4 3 2 2 2 4 9 9 9 9 11 11 12 14 0 3 2 5 8 11 12 9 9 12 14 15 14 14 14 15 14 13 13 9 5 5 6 6 6 5 4 4 5 5
1 4 2 4 2 6 11 15 14 8 6 6 9 5 1 1 7 10 12 13 13 10 11 13 14 14 13 13 14 15 15 14 12 10 5 4 5 6 6 6 5 4 5 5
2 4 2 4 3 7 3 0 4 7 5 8 4 2 1 5 9 13 12 12 8 12 16 16 14 14 14 14 14 14 14 13 12 11 7 4 4 5 5 5 6 6 5 6
7 5 3 4 5 9 7 6 5 6 5 6 6 4 1 7 10 14 3 2 12 17 16 16 15 15 15 15 15 14 15 14 13 12 11 6 2 5 5 5 6 6 7 7
6 4 7 4 4 4 2 5 5 3 10 6 5 3 6 6 8 11 7 14 16 15 15 16 17 16 15 15 15 15 15 13 14 13 11 9 5 3 4 6 8 7 8 8
6 4 9 7 4 7 2 8 6 6 3 7 3 6 7 8 8 15 17 17 16 18 18 16 16 16 16 15 13 15 15 15 13 13 12 11 7 4 1 4 5 6 8 9
6 7 5 5 5 8 9 8 6 4 3 5 6 7 8 11 15 17 17 18 19 19 17 17 15 15 15 15 13 14 15 15 14 13 12 11 8 4 1 1 4 6 6 8
4 3 1 6 3 3 7 2 1 2 8 5 5 6 8 13 16 17 18 16 16 19 15 15 14 14 16 15 13 15 15 15 13 12 12 10 8 5 1 2 3 4 5 5
3 3 4 3 2 5 6 7 7 6 9 7 7 10 10 13 15 17 16 12 13 14 13 14 14 14 16 16 16 15 15 15 14 13 13 10 7 6 3 1 2 3 3 5
3 2 3 6 9 8 5 7 5 6 6 10 12 10 11 12 16 15 14 15 14 14 13 12 13 13 14 15 15 14 13 14 13 12 11 8 3 4 3 2 1 2 2 4
4 5 5 4 5 3 5 3 5 10 10 9 8 11 11 13 14 14 12 12 14 15 14 14 15 14 15 11 14 12 12 11 11 10 9 9 2 1 3 3 3 2 3 6
Wind_Direction
182 206 212 207 208 230 198 242 264 252 245 267 263 265 287 288 283 310 354 11 351 342 334 336 345 344 272 225 209 203 196 193 180 187 183 203 211 211 216 217 219 222 219 217
176 229 227 207 177 185 195 218 259 298 214 215 265 282 294 297 59 56 25 5 350 341 336 340 348 351 340 259 222 211 208 197 193 191 199 203 207 217 221 206 218 210 216 218
213 190 183 181 169 187 211 225 234 258 119 236 258 225 314 100 98 63 35 5 353 348 336 332 337 345 338 309 249 224 211 204 202 199 195 189 170 232 213 218 212 209 212 211
230 222 173 183 205 203 230 215 236 248 234 250 261 227 279 107 118 41 17 7 355 350 343 336 335 340 343 333 289 243 223 211 203 199 196 198 202 206 216 207 208 200 205 203
195 194 190 206 228 193 226 192 208 210 221 219 188 242 174 357 126 13 7 6 2 359 355 348 347 346 355 347 319 261 230 215 206 195 205 200 211 223 213 209 203 197 200 215
140 48 43 335 66 195 98 164 118 134 184 239 232 240 171 1 345 0 22 23 19 16 13 12 7 7 10 10 359 316 240 223 210 203 204 208 216 215 210 200 192 185 197 185
156 45 352 10 197 96 203 193 217 215 208 251 128 218 34 30 37 20 10 17 19 22 25 18 16 14 16 22 18 14 3 268 225 211 208 214 215 214 224 200 183 174 206 225
211 162 11 357 23 8 70 268 244 255 230 162 169 203 108 112 113 34 36 27 18 18 16 20 22 16 19 24 35 28 27 28 20 252 222 220 221 214 211 194 166 162 188 340
136 104 317 48 44 337 93 95 358 105 38 248 141 111 179 186 125 88 48 21 15 6 7 11 17 16 20 21 27 27 40 35 29 23 35 58 189 191 188 148 133 118 106 77
128 147 22 7 323 45 64 45 204 104 221 241 186 193 139 166 102 58 44 18 4 356 354 5 11 8 3 10 12 16 24 31 31 39 45 112 159 179 182 165 157 149 153 129
114 308 168 294 38 340 335 239 79 323 248 271 252 144 72 88 356 335 349 346 342 338 335 337 340 345 346 1 11 9 7 13 19 13 1 329 255 202 185 197 185 178 171 164
56 131 208 262 335 278 248 260 233 230 184 212 317 178 69 42 28 3 12 9 357 345 323 324 333 326 320 322 337 337 341 357 7 5 5 359 290 260 216 212 213 234 212 171
171 169 182 198 206 184 217 163 135 115 128 252 255 205 143 67 45 22 15 9 12 13 12 3 348 333 324 336 340 351 345 351 359 3 8 10 11 332 272 240 208 194 211 201
122 150 231 271 345 33 204 179 137 207 229 258 243 287 211 341 19 17 23 21 17 16 14 9 2 356 336 318 316 326 339 340 348 357 10 26 13 5 346 299 289 198 191 201
338 246 250 263 187 237 247 241 238 233 249 255 279 266 289 259 346 9 2 350 341 350 355 358 352 349 346 343 337 323 328 331 332 341 3 13 21 33 21 353 321 259 225 211
8 179 207 239 313 284 270 250 242 244 255 262 262 271 146 116 323 331 340 340 337 334 336 335 333 334 337 338 336 330 326 325 321 312 342 359 12 26 31 26 354 304 259 261
306 164 175 264 8 302 273 248 229 222 210 245 243 298 130 334 344 334 326 323 318 319 322 324 324 320 320 322 326 323 324 318 310 297 308 337 356 360 13 360 354 335 285 282
212 176 198 293 278 243 35 16 215 216 243 223 248 200 74 353 324 305 306 295 306 314 315 316 316 314 314 313 312 314 317 317 313 296 283 293 338 336 346 347 332 320 308 282
219 212 195 246 232 296 253 199 199 215 271 227 229 190 243 341 317 298 80 304 310 309 305 308 309 308 308 307 309 307 309 312 313 306 299 292 291 309 323 340 336 333 318 301
158 234 225 181 241 254 59 156 135 143 268 150 171 181 308 319 292 301 340 300 298 295 296 300 300 303 300 300 302 299 296 298 299 305 302 299 270 280 333 337 339 328 312 304
155 179 212 214 253 279 194 152 152 235 30 157 199 286 282 268 284 296 303 303 298 299 298 298 297 297 298 298 295 290 287 283 287 298 298 292 269 266 286 338 326 318 315 310
183 178 187 192 215 261 143 142 227 61 158 230 259 280 284 290 291 292 293 299 304 302 301 303 300 296 294 293 289 283 280 286 287 288 291 285 260 235 177 331 324 319 331 319
223 249 247 216 234 22 194 339 101 227 284 261 284 301 297 296 301 303 303 304 296 301 297 294 297 297 293 291 287 282 279 281 281 283 282 278 269 240 215 314 319 316 336 326
201 185 239 270 136 239 255 263 266 285 268 257 266 286 297 300 304 303 309 301 297 293 298 297 298 293 294 292 291 282 279 277 281 276 276 275 271 240 181 253 312 319 347 326
298 199 242 266 273 270 258 241 287 285 269 263 279 291 299 304 304 308 312 305 306 303 296 296 292 290 285 289 290 290 276 274 275 272 266 257 290 244 203 174 337 327 358 313
214 228 207 246 14 302 303 262 284 285 285 284 292 300 306 306 300 312 300 299 303 297 296 291 289 287 288 281 292 289 277 270 271 268 251 249 280 0 260 239 195 57 353 337